THOR ABLESTAR DEB, 17648

Orbit data source: Space-Track

THOR ABLESTAR DEB, 17648 is space debris in LEO originally from a launch on Thu, 29 Jun 1961 UTC launched from the Air Force Eastern Test Range (AFETR). Debris objects in space refer to the collection of defunct objects orbiting the Earth. Examples of debris include non-operational satellites, rocket bodies, and fragments generated from explosions, collisions, or faulty payload assembly.

Loading next visibility...
Identifier
17648, 1961-015LH
Orbit
LEO
Country
Flag of USUS
Related business
Manufacturer
Unknown
Mission
Spacecraft
Bus & Motor
Unknown
Mass
Unknown
Launch date (UTC)
1961-06-29 (65 years ago)
Launch vehicle
Unknown
Launch site
Air Force Eastern Test Range (AFETR)
Object type
Payload
Rocket body
Debris
Shape & HBR
Unknown shape, 0.1 m
Radar Cross Section
Medium (>0.1 m² and <1 m²)

Expand to show TLE details & history
Last TLE update: 3 days ago

TLE from 3 days ago
0 THOR ABLESTAR DEB
1 17648U 61015LH  26251.41956059  .00002538  00000-0  10035-2 0  9993
2 17648  65.7276 256.5419 0048263 108.0245 252.6113 14.30089387769023
Epoch: 2026-09-08T10:04Z
TLE epoch observation values (Epoch: 2026-09-08T10:04:10.034Z)
Latitude
-0.00001°
Longitude
118.01385°
Altitude
803.956 km
Speed
7.446 km/s
True Right ascension
17h 06m 10s
True Declination
0° 00' 00"
Sunlit
Object was in daylight at epoch
Visualization orbit readout
Latitude
Unknown
Longitude
Unknown
Altitude
Unknown
Speed
Unknown
Apparent Right ascension
Unknown
Apparent Declination
Unknown
Sunlit
N/A
Visualization observer readout
Local Sidereal Time
12:03:05
Azimuth
Unknown
Elevation
Unknown
Doppler factor
Unknown
Orbital elements
Apogee altitude
824.517 km
Perigee altitude
755.327 km
Semi-major axis
7,168.059 km
Eccentricity
0.00483
Inclination
65.7276°
RAAN
256.5419°
Arg. of periapsis
108.0245°
True anomaly
252.08448°
Mean anomaly
252.6113°
Eccentric anomaly
252.34779°
Mean motion
3.57636 °/min
Orbital period
100.66 mins
BSTAR
0.0010035
Loading maneuver chart data...
Computing Atmospheric mass density...
Loading historical data...
Loading historical data...
Loading historical data...
Loading historical data...
Loading historical data...
Loading historical data...
Loading historical data...

Documentation

Showing up to 5 results
|